EW4785 Weather Reports


Display with metric or nautical units.
time (UTC)temp
F
wind
direction
speed
MPH
gust
MPH
rain 1hr
in
rain 24hr
in
rain mn
in
humidity
%
barometer
mb
20260510214521 83 242 1.0 7.0 0.00 0.00 0.00 30 1014.0
20260510213020 83 273 0.0 5.0 0.00 0.00 0.00 30 1014.0
20260510211520 82 295 2.0 10.0 0.00 0.00 0.00 29 1013.9
20260510210019 82 208 2.0 7.0 0.00 0.00 0.00 32 1014.1
20260510204518 83 139 0.0 6.0 0.00 0.00 0.00 29 1013.9
20260510203019 83 146 2.0 8.0 0.00 0.00 0.00 32 1014.2
20260510201515 82 199 1.0 7.0 0.00 0.00 0.00 34 1014.3
20260510200014 84 290 2.0 5.0 0.00 0.00 0.00 32 1014.2
20260510194510 82 234 1.0 7.0 0.00 0.00 0.00 32 1014.3
20260510193009 82 159 1.0 5.0 0.00 0.00 0.00 31 1014.5
20260510191509 82 240 4.0 7.0 0.00 0.00 0.00 33 1014.7
20260510190012 82 157 0.0 4.0 0.00 0.00 0.00 34 1014.7
20260510184505 82 298 1.0 7.0 0.00 0.00 0.00 33 1014.8
20260510183004 82 274 1.0 4.0 0.00 0.00 0.00 35 1014.8
20260510181503 81 190 1.0 7.0 0.00 0.00 0.00 35 1015.0
20260510180001 81 184 2.0 5.0 0.00 0.00 0.00 35 1015.2
20260510174501 82 274 3.0 6.0 0.00 0.00 0.00 33 1015.2
20260510173103 82 101 1.0 2.0 0.00 0.00 0.00 35 1015.3
20260510171557 81 159 0.0 4.0 0.00 0.00 0.00 39 1015.6
20260510170057 81 207 0.0 4.0 0.00 0.00 0.00 39 1015.6
20260510164601 80 275 0.0 4.0 0.00 0.00 0.00 36 1015.7
20260510163054 80 178 0.0 5.0 0.00 0.00 0.00 40 1015.7
20260510161553 80 303 0.0 3.0 0.00 0.00 0.00 39 1015.7
20260510160047 80 59 1.0 4.0 0.00 0.00 0.00 43 1015.9
20260510154552 79 232 2.0 7.0 0.00 0.00 0.00 45 1015.8
20260510153044 78 103 1.0 3.0 0.00 0.00 0.00 48 1016.0
20260510151548 77 132 1.0 4.0 0.00 0.00 0.00 51 1016.1
20260510150046 76 236 0.0 3.0 0.00 0.00 0.00 50 1016.2
20260510144546 75 309 2.0 9.0 0.00 0.00 0.00 49 1016.1
20260510143030 74 186 0.0 3.0 0.00 0.00 0.00 53 1016.0
20260510141526 72 76 1.0 6.0 0.00 0.00 0.00 60 1016.0
20260510140022 70 71 0.0 3.0 0.00 0.00 0.00 72 1016.1
20260510134518 67 298 0.0 2.0 0.00 0.00 0.00 77 1016.1
20260510133012 65 324 0.0 1.0 0.00 0.00 0.00 86 1016.0
20260510131509 63 247 0.0 3.0 0.00 0.00 0.00 92 1016.0
20260510130006 61 140 0.0 0.0 0.00 0.00 0.00 96 1015.9
20260510124505 61 184 0.0 0.0 0.00 0.00 0.00 97 1015.8
20260510123004 60 184 0.0 1.0 0.00 0.00 0.00 98 1015.5
20260510121609 59 184 0.0 1.0 0.00 0.00 0.00 98 1015.2
20260510120059 57 184 0.0 0.0 0.00 0.00 0.00 97 1014.9
20260510114616 57 184 0.0 0.0 0.00 0.00 0.00 97 1014.9
20260510113100 56 184 0.0 1.0 0.00 0.00 0.00 98 1014.7
20260510111554 55 184 0.0 0.0 0.00 0.00 0.00 96 1014.5
20260510110052 55 184 0.0 0.0 0.00 0.00 0.00 96 1014.1
20260510104557 56 184 0.0 0.0 0.00 0.00 0.00 96 1014.0
20260510103047 56 184 0.0 0.0 0.00 0.00 0.00 97 1013.7
20260510101547 56 184 0.0 1.0 0.00 0.00 0.00 97 1013.5
20260510100057 55 184 0.0 0.0 0.00 0.00 0.00 96 1013.3
20260510094551 56 184 0.0 1.0 0.00 0.00 0.00 95 1013.1
20260510093039 56 184 0.0 0.0 0.00 0.00 0.00 96 1013.0
20260510091538 57 184 0.0 0.0 0.00 0.00 0.00 96 1012.7
20260510090036 57 184 0.0 0.0 0.00 0.00 0.00 95 1012.7
20260510084536 57 184 0.0 0.0 0.00 0.00 0.00 95 1012.6
20260510083041 57 184 0.0 0.0 0.00 0.00 0.00 95 1012.6
20260510081534 57 184 0.0 0.0 0.00 0.00 0.00 94 1012.4
20260510080036 58 184 0.0 0.0 0.00 0.00 0.00 94 1012.3
20260510074536 59 184 0.0 0.0 0.00 0.00 0.00 94 1012.3
20260510073027 59 184 0.0 0.0 0.00 0.00 0.00 95 1012.4
20260510071528 59 184 0.0 0.0 0.00 0.00 0.00 95 1012.3
20260510070032 59 184 0.0 1.0 0.00 0.00 0.00 94 1012.3
20260510064525 59 184 0.0 0.0 0.00 0.00 0.00 93 1012.1
20260510063024 60 184 0.0 0.0 0.00 0.00 0.00 95 1012.2
20260510061527 59 184 0.0 0.0 0.00 0.00 0.00 95 1012.2
20260510060023 59 184 0.0 0.0 0.00 0.00 0.00 94 1012.1
20260510054521 59 184 0.0 0.0 0.00 0.00 0.00 93 1012.3
20260510053017 60 184 0.0 0.0 0.00 0.00 0.00 92 1012.6
20260510051517 60 184 0.0 0.0 0.00 0.00 0.00 93 1012.6
20260510050016 60 184 0.0 0.0 0.00 0.00 0.00 93 1012.7
20260510044515 60 184 0.0 0.0 0.00 0.00 0.00 92 1012.9
20260510043013 61 184 0.0 1.0 0.00 0.00 0.00 91 1012.7
20260510041512 61 184 0.0 2.0 0.00 0.00 0.00 91 1012.9
20260510040009 62 184 0.0 1.0 0.00 0.00 0.00 90 1012.8
20260510034509 62 184 0.0 2.0 0.00 0.00 0.00 90 1012.8
20260510033007 62 184 0.0 1.0 0.00 0.00 0.00 90 1012.6
20260510031507 62 184 0.0 0.0 0.00 0.00 0.00 90 1012.6
20260510030007 62 184 0.0 0.0 0.00 0.00 0.00 89 1012.6
20260510024512 62 184 0.0 1.0 0.00 0.00 0.00 89 1012.5
20260510023005 63 184 0.0 1.0 0.00 0.00 0.00 88 1012.4
20260510021506 63 184 0.0 1.0 0.00 0.00 0.00 87 1012.3
20260510020007 64 184 0.0 1.0 0.00 0.00 0.00 85 1012.1
20260510014504 64 184 0.0 1.0 0.00 0.00 0.00 85 1012.2
20260510013002 64 184 0.0 2.0 0.00 0.00 0.00 84 1011.7
20260510011503 65 184 0.0 2.0 0.00 0.00 0.00 83 1011.4
20260510010002 65 184 0.0 2.0 0.00 0.00 0.00 82 1011.1
20260510004501 66 184 0.0 2.0 0.00 0.00 0.00 81 1010.7
20260510003002 66 184 0.0 4.0 0.00 0.00 0.00 80 1010.8
20260510001600 67 176 0.0 2.0 0.00 0.00 0.00 79 1010.6
20260510000101 68 182 1.0 4.0 0.00 0.00 0.00 77 1010.6
20260509234611 68 177 2.0 4.0 0.00 0.00 0.00 76 1010.5
20260509233059 69 178 1.0 5.0 0.00 0.00 0.00 75 1010.5
20260509231558 70 170 1.0 5.0 0.00 0.00 0.00 74 1010.2
20260509230159 70 173 2.0 4.0 0.00 0.00 0.00 74 1010.3
20260509224557 71 129 1.0 6.0 0.00 0.00 0.00 73 1010.0
20260509223100 72 180 1.0 8.0 0.00 0.00 0.00 72 1009.9
20260509221555 72 186 1.0 8.0 0.00 0.00 0.00 73 1010.0
20260509214554 72 142 1.0 5.0 0.00 0.00 0.00 70 1009.9